Location: Haut Kerinec
(48.0623°N, 4.4081°W)
Time: 02:10:10
(UTC+00:00)

CENTAUR R/B - Pass Details

Date: 01 June 2020
Orbit: 759 x 1428 km, 63.5° (Epoch: 15 June)

Event Time Altitude Azimuth Distance (km) Brightness Sun altitude
Rises 21:11:33 0° 316° (NW) 4,013 8.3 -8.5°
Reaches altitude 10° 21:14:18 10° 322° (NW) 3,143 6.9 -8.8°
Maximum altitude 21:21:43 47° 35° (NE) 1,702 3.9 -9.7°
Drops below altitude 10° 21:29:58 10° 108° (ESE) 3,495 4.9 -10.5°
Enters shadow 21:31:06 - 110° (ESE) 3,844 5.1 -10.7°
